Year,Month,Day,Hour,Minute,Value (Times are PST for windspeed in km/hr)
2010,03,16,00,00,4.20
2010,03,16,00,01,2.80
2010,03,16,00,02,0.50
2010,03,16,00,03,0.30
2010,03,16,00,04,2.10
2010,03,16,00,05,2.70
2010,03,16,00,06,4.30
2010,03,16,00,07,4.20
2010,03,16,00,08,1.80
2010,03,16,00,09,0.50
2010,03,16,00,10,3.30
2010,03,16,00,11,3.50
2010,03,16,00,12,3.50
2010,03,16,00,13,3.50
2010,03,16,00,14,2.30
2010,03,16,00,15,0.80
2010,03,16,00,16,3.40
2010,03,16,00,17,4.20
2010,03,16,00,18,4.80
2010,03,16,00,19,5.80
2010,03,16,00,20,4.40
2010,03,16,00,21,5.30
2010,03,16,00,22,6.00
2010,03,16,00,23,8.20
2010,03,16,00,24,4.70
2010,03,16,00,25,2.90
2010,03,16,00,26,1.90
2010,03,16,00,27,1.50
2010,03,16,00,28,3.90
2010,03,16,00,29,4.20
2010,03,16,00,30,5.20
2010,03,16,00,31,4.80
2010,03,16,00,32,2.60
2010,03,16,00,33,0.40
2010,03,16,00,34,1.30
2010,03,16,00,35,4.00
2010,03,16,00,36,3.20
2010,03,16,00,37,2.60
2010,03,16,00,38,5.70
2010,03,16,00,39,2.10
2010,03,16,00,40,0.20
2010,03,16,00,41,2.30
2010,03,16,00,42,1.90
2010,03,16,00,43,1.00
2010,03,16,00,44,1.40
2010,03,16,00,45,0.80
2010,03,16,00,46,1.00
2010,03,16,00,47,2.90
2010,03,16,00,48,0.50
2010,03,16,00,49,0.00
2010,03,16,00,50,0.30
2010,03,16,00,51,0.00
2010,03,16,00,52,0.00
2010,03,16,00,53,0.30
2010,03,16,00,54,2.40
2010,03,16,00,55,1.50
2010,03,16,00,56,0.90
2010,03,16,00,57,0.50
2010,03,16,00,58,0.70
2010,03,16,00,59,1.80
2010,03,16,01,00,1.00
2010,03,16,01,01,0.00
2010,03,16,01,02,0.00
2010,03,16,01,03,0.00
2010,03,16,01,04,0.10
2010,03,16,01,05,0.00
2010,03,16,01,06,0.30
2010,03,16,01,07,1.90
2010,03,16,01,08,2.90
2010,03,16,01,09,3.00
2010,03,16,01,10,3.00
2010,03,16,01,11,2.40
2010,03,16,01,12,3.00
2010,03,16,01,13,3.50
2010,03,16,01,14,2.90
2010,03,16,01,15,3.70
2010,03,16,01,16,2.40
2010,03,16,01,17,4.90
2010,03,16,01,18,5.70
2010,03,16,01,19,5.70
2010,03,16,01,20,4.80
2010,03,16,01,21,4.50
2010,03,16,01,22,4.60
2010,03,16,01,23,4.40
2010,03,16,01,24,5.40
2010,03,16,01,25,2.40
2010,03,16,01,26,2.50
2010,03,16,01,27,2.60
2010,03,16,01,28,2.00
2010,03,16,01,29,2.80
2010,03,16,01,30,0.50
2010,03,16,01,31,0.20
2010,03,16,01,32,0.70
2010,03,16,01,33,0.10
2010,03,16,01,34,0.00
2010,03,16,01,35,0.10
2010,03,16,01,36,0.10
2010,03,16,01,37,0.30
2010,03,16,01,38,1.20
2010,03,16,01,39,0.90
2010,03,16,01,40,0.60
2010,03,16,01,41,0.40
2010,03,16,01,42,1.40
2010,03,16,01,43,0.10
2010,03,16,01,44,0.50
2010,03,16,01,45,2.50
2010,03,16,01,46,2.50
2010,03,16,01,47,4.50
2010,03,16,01,48,2.30
2010,03,16,01,49,3.30
2010,03,16,01,50,2.20
2010,03,16,01,51,0.30
2010,03,16,01,52,0.70
2010,03,16,01,53,2.70
2010,03,16,01,54,0.00
2010,03,16,01,55,3.50
2010,03,16,01,56,1.60
2010,03,16,01,57,2.20
2010,03,16,01,58,3.20
2010,03,16,01,59,2.30
2010,03,16,02,00,1.30
2010,03,16,02,01,2.30
2010,03,16,02,02,2.70
2010,03,16,02,03,3.40
2010,03,16,02,04,2.10
2010,03,16,02,05,0.60
2010,03,16,02,06,2.70
2010,03,16,02,07,0.40
2010,03,16,02,08,0.00
2010,03,16,02,09,1.10
2010,03,16,02,10,0.20
2010,03,16,02,11,1.50
2010,03,16,02,12,0.50
2010,03,16,02,13,1.90
2010,03,16,02,14,4.10
2010,03,16,02,15,5.30
2010,03,16,02,16,4.20
2010,03,16,02,17,3.90
2010,03,16,02,18,3.00
2010,03,16,02,19,1.50
2010,03,16,02,20,0.10
2010,03,16,02,21,0.00
2010,03,16,02,22,1.60
2010,03,16,02,23,1.90
2010,03,16,02,24,0.80
2010,03,16,02,25,1.90
2010,03,16,02,26,3.50
2010,03,16,02,27,1.60
2010,03,16,02,28,0.50
2010,03,16,02,29,1.40
2010,03,16,02,30,1.50
2010,03,16,02,31,0.90
2010,03,16,02,32,1.20
2010,03,16,02,33,3.40
2010,03,16,02,34,0.30
2010,03,16,02,35,2.10
2010,03,16,02,36,1.60
2010,03,16,02,37,0.30
2010,03,16,02,38,2.30
2010,03,16,02,39,3.10
2010,03,16,02,40,1.70
2010,03,16,02,41,2.60
2010,03,16,02,42,3.90
2010,03,16,02,43,3.00
2010,03,16,02,44,1.60
2010,03,16,02,45,2.50
2010,03,16,02,46,2.80
2010,03,16,02,47,0.50
2010,03,16,02,48,3.00
2010,03,16,02,49,4.00
2010,03,16,02,50,3.10
2010,03,16,02,51,4.10
2010,03,16,02,52,4.20
2010,03,16,02,53,1.00
2010,03,16,02,54,0.30
2010,03,16,02,55,3.60
2010,03,16,02,56,2.10
2010,03,16,02,57,3.60
2010,03,16,02,58,3.60
2010,03,16,02,59,6.00
2010,03,16,03,00,3.60
2010,03,16,03,01,3.50
2010,03,16,03,02,3.90
2010,03,16,03,03,1.70
2010,03,16,03,04,4.80
2010,03,16,03,05,5.10
2010,03,16,03,06,2.70
2010,03,16,03,07,3.50
2010,03,16,03,08,1.10
2010,03,16,03,09,1.20
2010,03,16,03,10,5.10
2010,03,16,03,11,4.30
2010,03,16,03,12,3.80
2010,03,16,03,13,2.60
2010,03,16,03,14,0.60
2010,03,16,03,15,1.70
2010,03,16,03,16,4.70
2010,03,16,03,17,3.80
2010,03,16,03,18,1.40
2010,03,16,03,19,1.90
2010,03,16,03,20,2.30
2010,03,16,03,21,3.30
2010,03,16,03,22,2.30
2010,03,16,03,23,1.10
2010,03,16,03,24,1.40
2010,03,16,03,25,1.10
2010,03,16,03,26,1.40
2010,03,16,03,27,4.00
2010,03,16,03,28,2.10
2010,03,16,03,29,0.90
2010,03,16,03,30,1.00
2010,03,16,03,31,4.10
2010,03,16,03,32,3.40
2010,03,16,03,33,3.50
2010,03,16,03,34,2.30
2010,03,16,03,35,3.70
2010,03,16,03,36,4.10
2010,03,16,03,37,3.30
2010,03,16,03,38,2.40
2010,03,16,03,39,3.00
2010,03,16,03,40,2.70
2010,03,16,03,41,4.90
2010,03,16,03,42,3.50
2010,03,16,03,43,4.50
2010,03,16,03,44,1.90
2010,03,16,03,45,2.40
2010,03,16,03,46,2.60
2010,03,16,03,47,1.90
2010,03,16,03,48,1.20
2010,03,16,03,49,0.30
2010,03,16,03,50,0.20
2010,03,16,03,51,0.30
2010,03,16,03,52,2.50
2010,03,16,03,53,4.20
2010,03,16,03,54,4.00
2010,03,16,03,55,0.80
2010,03,16,03,56,0.90
2010,03,16,03,57,0.30
2010,03,16,03,58,2.10
2010,03,16,03,59,2.30
2010,03,16,04,00,0.60
2010,03,16,04,01,0.40
2010,03,16,04,02,1.90
2010,03,16,04,03,2.60
2010,03,16,04,04,0.90
2010,03,16,04,05,2.40
2010,03,16,04,06,1.60
2010,03,16,04,07,0.20
2010,03,16,04,08,2.30
2010,03,16,04,09,0.90
2010,03,16,04,10,2.00
2010,03,16,04,11,3.20
2010,03,16,04,12,3.90
2010,03,16,04,13,2.30
2010,03,16,04,14,1.10
2010,03,16,04,15,0.90
2010,03,16,04,16,4.40
2010,03,16,04,17,2.80
2010,03,16,04,18,1.10
2010,03,16,04,19,0.90
2010,03,16,04,20,2.30
2010,03,16,04,21,3.00
2010,03,16,04,22,5.40
2010,03,16,04,23,6.00
2010,03,16,04,24,5.50
2010,03,16,04,25,5.10
2010,03,16,04,26,4.70
2010,03,16,04,27,4.30
2010,03,16,04,28,2.10
2010,03,16,04,29,4.00
2010,03,16,04,30,5.60
2010,03,16,04,31,5.80
2010,03,16,04,32,5.20
2010,03,16,04,33,3.10
2010,03,16,04,34,5.80
2010,03,16,04,35,6.00
2010,03,16,04,36,7.00
2010,03,16,04,37,5.60
2010,03,16,04,38,3.90
2010,03,16,04,39,2.60
2010,03,16,04,40,2.30
2010,03,16,04,41,2.10
2010,03,16,04,42,3.80
2010,03,16,04,43,5.50
2010,03,16,04,44,4.00
2010,03,16,04,45,4.30
2010,03,16,04,46,3.00
2010,03,16,04,47,3.20
2010,03,16,04,48,3.70
2010,03,16,04,49,3.50
2010,03,16,04,50,3.60
2010,03,16,04,51,4.30
2010,03,16,04,52,5.70
2010,03,16,04,53,4.50
2010,03,16,04,54,3.00
2010,03,16,04,55,3.90
2010,03,16,04,56,5.30
2010,03,16,04,57,5.20
2010,03,16,04,58,4.10
2010,03,16,04,59,5.10
2010,03,16,05,00,4.30
2010,03,16,05,01,6.00
2010,03,16,05,02,7.10
2010,03,16,05,03,6.00
2010,03,16,05,04,5.60
2010,03,16,05,05,5.60
2010,03,16,05,06,4.40
2010,03,16,05,07,5.90
2010,03,16,05,08,7.60
2010,03,16,05,09,6.50
2010,03,16,05,10,4.90
2010,03,16,05,11,3.40
2010,03,16,05,12,4.10
2010,03,16,05,13,6.40
2010,03,16,05,14,9.80
2010,03,16,05,15,11.90
2010,03,16,05,16,10.30
2010,03,16,05,17,7.30
2010,03,16,05,18,7.70
2010,03,16,05,19,6.00
2010,03,16,05,20,7.50
2010,03,16,05,21,6.00
2010,03,16,05,22,8.60
2010,03,16,05,23,5.90
2010,03,16,05,24,5.80
2010,03,16,05,25,6.90
2010,03,16,05,26,5.90
2010,03,16,05,27,2.50
2010,03,16,05,28,2.30
2010,03,16,05,29,1.80
2010,03,16,05,30,4.60
2010,03,16,05,31,6.80
2010,03,16,05,32,6.50
2010,03,16,05,33,5.80
2010,03,16,05,34,5.30
2010,03,16,05,35,5.10
2010,03,16,05,36,5.60
2010,03,16,05,37,6.20
2010,03,16,05,38,7.80
2010,03,16,05,39,6.80
2010,03,16,05,40,4.20
2010,03,16,05,41,6.00
2010,03,16,05,42,4.70
2010,03,16,05,43,5.90
2010,03,16,05,44,4.60
2010,03,16,05,45,2.70
2010,03,16,05,46,2.30
2010,03,16,05,47,3.50
2010,03,16,05,48,2.50
2010,03,16,05,49,2.60
2010,03,16,05,50,0.40
2010,03,16,05,51,3.20
2010,03,16,05,52,4.50
2010,03,16,05,53,5.10
2010,03,16,05,54,2.40
2010,03,16,05,55,3.00
2010,03,16,05,56,3.80
2010,03,16,05,57,3.10
2010,03,16,05,58,4.70
2010,03,16,05,59,3.80
2010,03,16,06,00,2.90
2010,03,16,06,01,3.90
2010,03,16,06,02,4.10
2010,03,16,06,03,4.20
2010,03,16,06,04,4.10
2010,03,16,06,05,4.70
2010,03,16,06,06,6.20
2010,03,16,06,07,4.10
2010,03,16,06,08,2.60
2010,03,16,06,09,3.60
2010,03,16,06,10,5.30
2010,03,16,06,11,3.00
2010,03,16,06,12,4.70
2010,03,16,06,13,2.90
2010,03,16,06,14,3.30
2010,03,16,06,15,3.60
2010,03,16,06,16,3.10
2010,03,16,06,17,3.00
2010,03,16,06,18,4.20
2010,03,16,06,19,3.90
2010,03,16,06,20,2.90
2010,03,16,06,21,2.00
2010,03,16,06,22,2.40
2010,03,16,06,23,1.80
2010,03,16,06,24,1.20
2010,03,16,06,25,2.50
2010,03,16,06,26,4.00
2010,03,16,06,27,6.00
2010,03,16,06,28,6.70
2010,03,16,06,29,3.60
2010,03,16,06,30,3.80
2010,03,16,06,31,6.20
2010,03,16,06,32,4.60
2010,03,16,06,33,5.20
2010,03,16,06,34,3.00
2010,03,16,06,35,4.30
2010,03,16,06,36,5.30
2010,03,16,06,37,3.20
2010,03,16,06,38,2.30
2010,03,16,06,39,2.70
2010,03,16,06,40,4.70
2010,03,16,06,41,1.80
2010,03,16,06,42,1.90
2010,03,16,06,43,3.50
2010,03,16,06,44,1.80
2010,03,16,06,45,3.00
2010,03,16,06,46,3.10
2010,03,16,06,47,2.30
2010,03,16,06,48,2.30
2010,03,16,06,49,3.80
2010,03,16,06,50,3.20
2010,03,16,06,51,4.30
2010,03,16,06,52,3.40
2010,03,16,06,53,3.70
2010,03,16,06,54,2.20
2010,03,16,06,55,3.50
2010,03,16,06,56,5.70
2010,03,16,06,57,6.00
2010,03,16,06,58,3.90
2010,03,16,06,59,2.00
2010,03,16,07,00,4.90
2010,03,16,07,01,4.00
2010,03,16,07,02,6.30
2010,03,16,07,03,4.60
2010,03,16,07,04,3.40
2010,03,16,07,05,4.00
2010,03,16,07,06,6.30
2010,03,16,07,07,5.20
2010,03,16,07,08,6.80
2010,03,16,07,09,3.10
2010,03,16,07,10,1.50
2010,03,16,07,11,4.30
2010,03,16,07,12,0.90
2010,03,16,07,13,3.70
2010,03,16,07,14,1.50
2010,03,16,07,15,4.40
2010,03,16,07,16,6.60
2010,03,16,07,17,6.00
2010,03,16,07,18,2.70
2010,03,16,07,19,4.50
2010,03,16,07,20,7.70
2010,03,16,07,21,6.70
2010,03,16,07,22,3.20
2010,03,16,07,23,4.40
2010,03,16,07,24,2.70
2010,03,16,07,25,2.10
2010,03,16,07,26,1.40
2010,03,16,07,27,1.90
2010,03,16,07,28,1.80
2010,03,16,07,29,2.30
2010,03,16,07,30,3.90
2010,03,16,07,31,4.70
2010,03,16,07,32,3.90
2010,03,16,07,33,5.50
2010,03,16,07,34,8.00
2010,03,16,07,35,5.60
2010,03,16,07,36,6.40
2010,03,16,07,37,4.90
2010,03,16,07,38,5.00
2010,03,16,07,39,4.10
2010,03,16,07,40,7.10
2010,03,16,07,41,8.10
2010,03,16,07,42,9.50
2010,03,16,07,43,8.00
2010,03,16,07,44,5.70
2010,03,16,07,45,5.20
2010,03,16,07,46,9.80
2010,03,16,07,47,12.00
2010,03,16,07,48,7.60
2010,03,16,07,49,7.60
2010,03,16,07,50,6.40
2010,03,16,07,51,5.00
2010,03,16,07,52,6.90
2010,03,16,07,53,8.20
2010,03,16,07,54,9.40
2010,03,16,07,55,5.90
2010,03,16,07,56,7.00
2010,03,16,07,57,7.10
2010,03,16,07,58,6.30
2010,03,16,07,59,4.80
2010,03,16,08,00,7.10
2010,03,16,08,01,5.00
2010,03,16,08,02,3.20
2010,03,16,08,03,0.90
2010,03,16,08,04,2.50
2010,03,16,08,05,5.10
2010,03,16,08,06,5.60
2010,03,16,08,07,3.40
2010,03,16,08,08,3.60
2010,03,16,08,09,2.00
2010,03,16,08,10,2.30
2010,03,16,08,11,7.20
2010,03,16,08,12,2.70
2010,03,16,08,13,3.50
2010,03,16,08,14,5.50
2010,03,16,08,15,4.20
2010,03,16,08,16,4.60
2010,03,16,08,17,2.70
2010,03,16,08,18,3.70
2010,03,16,08,19,3.90
2010,03,16,08,20,0.80
2010,03,16,08,21,3.00
2010,03,16,08,22,3.90
2010,03,16,08,23,2.50
2010,03,16,08,24,2.20
2010,03,16,08,25,2.30
2010,03,16,08,26,1.90
2010,03,16,08,27,2.00
2010,03,16,08,28,0.30
2010,03,16,08,29,2.70
2010,03,16,08,30,1.80
2010,03,16,08,31,4.30
2010,03,16,08,32,1.50
2010,03,16,08,33,0.20
2010,03,16,08,34,1.40
2010,03,16,08,35,2.60
2010,03,16,08,36,1.60
2010,03,16,08,37,3.20
2010,03,16,08,38,3.90
2010,03,16,08,39,3.10
2010,03,16,08,40,3.60
2010,03,16,08,41,4.10
2010,03,16,08,42,3.90
2010,03,16,08,43,1.60
2010,03,16,08,44,0.10
2010,03,16,08,45,1.60
2010,03,16,08,46,1.80
2010,03,16,08,47,1.90
2010,03,16,08,48,2.30
2010,03,16,08,49,4.00
2010,03,16,08,50,4.10
2010,03,16,08,51,1.90
2010,03,16,08,52,0.40
2010,03,16,08,53,0.00
2010,03,16,08,54,1.50
2010,03,16,08,55,1.40
2010,03,16,08,56,4.40
2010,03,16,08,57,0.80
2010,03,16,08,58,0.60
2010,03,16,08,59,0.00
2010,03,16,09,00,0.80
2010,03,16,09,01,0.10
2010,03,16,09,02,0.00
2010,03,16,09,03,1.30
2010,03,16,09,04,3.20
2010,03,16,09,05,4.70
2010,03,16,09,06,3.50
2010,03,16,09,07,1.10
2010,03,16,09,08,0.30
2010,03,16,09,09,0.80
2010,03,16,09,10,0.90
2010,03,16,09,11,0.60
2010,03,16,09,12,1.30
2010,03,16,09,13,2.30
2010,03,16,09,14,3.30
2010,03,16,09,15,1.90
2010,03,16,09,16,1.50
2010,03,16,09,17,0.80
2010,03,16,09,18,0.90
2010,03,16,09,19,0.00
2010,03,16,09,20,0.00
2010,03,16,09,21,0.00
2010,03,16,09,22,0.10
2010,03,16,09,23,0.00
2010,03,16,09,24,0.00
2010,03,16,09,25,0.50
2010,03,16,09,26,1.40
2010,03,16,09,27,0.30
2010,03,16,09,28,3.50
2010,03,16,09,29,4.60
2010,03,16,09,30,3.20
2010,03,16,09,31,2.90
2010,03,16,09,32,2.70
2010,03,16,09,33,4.70
2010,03,16,09,34,2.00
2010,03,16,09,35,2.60
2010,03,16,09,36,3.40
2010,03,16,09,37,2.70
2010,03,16,09,38,0.50
2010,03,16,09,39,2.50
2010,03,16,09,40,3.80
2010,03,16,09,41,2.40
2010,03,16,09,42,3.20
2010,03,16,09,43,5.10
2010,03,16,09,44,4.50
2010,03,16,09,45,2.40
2010,03,16,09,46,2.20
2010,03,16,09,47,0.80
2010,03,16,09,48,2.60
2010,03,16,09,49,2.20
2010,03,16,09,50,1.40
2010,03,16,09,51,2.30
2010,03,16,09,52,4.50
2010,03,16,09,53,5.30
2010,03,16,09,54,4.90
2010,03,16,09,55,4.90
2010,03,16,09,56,6.50
2010,03,16,09,57,3.40
2010,03,16,09,58,3.90
2010,03,16,09,59,3.30
2010,03,16,10,00,1.80
2010,03,16,10,01,3.30
2010,03,16,10,02,3.50
2010,03,16,10,03,1.90
2010,03,16,10,04,2.70
2010,03,16,10,05,2.70
2010,03,16,10,06,2.50
2010,03,16,10,07,3.20
2010,03,16,10,08,2.70
2010,03,16,10,09,1.50
2010,03,16,10,10,3.00
2010,03,16,10,11,2.80
2010,03,16,10,12,4.70
2010,03,16,10,13,6.90
2010,03,16,10,14,5.50
2010,03,16,10,15,6.50
2010,03,16,10,16,4.30
2010,03,16,10,17,2.80
2010,03,16,10,18,1.60
2010,03,16,10,19,3.10
2010,03,16,10,20,3.10
2010,03,16,10,21,2.60
2010,03,16,10,22,2.00
2010,03,16,10,23,3.00
2010,03,16,10,24,3.60
2010,03,16,10,25,3.40
2010,03,16,10,26,2.60
2010,03,16,10,27,1.80
2010,03,16,10,28,2.70
2010,03,16,10,29,4.20
2010,03,16,10,30,2.90
2010,03,16,10,31,1.40
2010,03,16,10,32,4.30
2010,03,16,10,33,4.70
2010,03,16,10,34,3.10
2010,03,16,10,35,6.20
2010,03,16,10,36,5.60
2010,03,16,10,37,3.20
2010,03,16,10,38,4.90
2010,03,16,10,39,4.10
2010,03,16,10,40,5.90
2010,03,16,10,41,4.10
2010,03,16,10,42,5.00
2010,03,16,10,43,5.80
2010,03,16,10,44,6.70
2010,03,16,10,45,5.00
2010,03,16,10,46,6.50
2010,03,16,10,47,5.90
2010,03,16,10,48,5.30
2010,03,16,10,49,5.40
2010,03,16,10,50,5.50
2010,03,16,10,51,6.90
2010,03,16,10,52,7.20
2010,03,16,10,53,10.60
2010,03,16,10,54,8.40
2010,03,16,10,55,7.60
2010,03,16,10,56,7.80
2010,03,16,10,57,5.80
2010,03,16,10,58,6.60
2010,03,16,10,59,8.50
2010,03,16,11,00,7.40
2010,03,16,11,01,7.00
2010,03,16,11,02,6.00
2010,03,16,11,03,13.20
2010,03,16,11,04,10.00
2010,03,16,11,05,5.70
2010,03,16,11,06,4.50
2010,03,16,11,07,9.00
2010,03,16,11,08,6.10
2010,03,16,11,09,4.20
2010,03,16,11,10,5.70
2010,03,16,11,11,7.50
2010,03,16,11,12,11.50
2010,03,16,11,13,9.10
2010,03,16,11,14,9.80
2010,03,16,11,15,8.30
2010,03,16,11,16,6.70
2010,03,16,11,17,8.00
2010,03,16,11,18,7.20
2010,03,16,11,19,6.00
2010,03,16,11,20,9.60
2010,03,16,11,21,9.50
2010,03,16,11,22,6.30
2010,03,16,11,23,9.40
2010,03,16,11,24,9.40
2010,03,16,11,25,13.80
2010,03,16,11,26,10.80
2010,03,16,11,27,11.80
2010,03,16,11,28,15.20
2010,03,16,11,29,16.20
2010,03,16,11,30,15.40
2010,03,16,11,31,15.50
2010,03,16,11,32,15.00
2010,03,16,11,33,11.20
2010,03,16,11,34,11.40
2010,03,16,11,35,12.90
2010,03,16,11,36,13.00
2010,03,16,11,37,13.00
2010,03,16,11,38,15.00
2010,03,16,11,39,13.70
2010,03,16,11,40,11.40
2010,03,16,11,41,14.10
2010,03,16,11,42,15.00
2010,03,16,11,43,18.60
2010,03,16,11,44,12.80
2010,03,16,11,45,18.40
2010,03,16,11,46,9.10
2010,03,16,11,47,11.30
2010,03,16,11,48,10.50
2010,03,16,11,49,12.60
2010,03,16,11,50,13.60
2010,03,16,11,51,12.90
2010,03,16,11,52,10.00
2010,03,16,11,53,14.60
2010,03,16,11,54,15.10
2010,03,16,11,55,15.50
2010,03,16,11,56,18.70
2010,03,16,11,57,13.60
2010,03,16,11,58,17.10
2010,03,16,11,59,13.40
2010,03,16,12,00,10.30
2010,03,16,12,01,12.00
2010,03,16,12,02,9.50
2010,03,16,12,03,12.10
2010,03,16,12,04,15.10
2010,03,16,12,05,14.90
2010,03,16,12,06,11.20
2010,03,16,12,07,14.70
2010,03,16,12,08,15.50
2010,03,16,12,09,17.50
2010,03,16,12,10,15.80
2010,03,16,12,11,9.30
2010,03,16,12,12,10.60
2010,03,16,12,13,11.40
2010,03,16,12,14,7.90
2010,03,16,12,15,6.80
2010,03,16,12,16,8.30
2010,03,16,12,17,11.60
2010,03,16,12,18,10.70
2010,03,16,12,19,14.10
2010,03,16,12,20,13.00
2010,03,16,12,21,11.10
2010,03,16,12,22,8.60
2010,03,16,12,23,10.10
2010,03,16,12,24,9.20
2010,03,16,12,25,12.40
2010,03,16,12,26,9.60
2010,03,16,12,27,10.20
2010,03,16,12,28,9.70
2010,03,16,12,29,10.10
2010,03,16,12,30,11.60
2010,03,16,12,31,13.10
2010,03,16,12,32,18.40
2010,03,16,12,33,18.60
2010,03,16,12,34,10.80
2010,03,16,12,35,13.30
2010,03,16,12,36,13.60
2010,03,16,12,37,12.70
2010,03,16,12,38,16.10
2010,03,16,12,39,14.50
2010,03,16,12,40,9.90
2010,03,16,12,41,16.60
2010,03,16,12,42,19.10
2010,03,16,12,43,14.70
2010,03,16,12,44,12.20
2010,03,16,12,45,8.50
2010,03,16,12,46,13.00
2010,03,16,12,47,18.40
2010,03,16,12,48,15.80
2010,03,16,12,49,14.30
2010,03,16,12,50,14.50
2010,03,16,12,51,19.70
2010,03,16,12,52,20.80
2010,03,16,12,53,13.60
2010,03,16,12,54,10.10
2010,03,16,12,55,16.20
2010,03,16,12,56,19.80
2010,03,16,12,57,16.10
2010,03,16,12,58,16.30
2010,03,16,12,59,14.10
2010,03,16,13,00,18.20
2010,03,16,13,01,15.00
2010,03,16,13,02,14.90
2010,03,16,13,03,14.60
2010,03,16,13,04,16.00
2010,03,16,13,05,15.20
2010,03,16,13,06,15.70
2010,03,16,13,07,13.60
2010,03,16,13,08,14.40
2010,03,16,13,09,11.70
2010,03,16,13,10,9.20
2010,03,16,13,11,11.50
2010,03,16,13,12,13.50
2010,03,16,13,13,10.90
2010,03,16,13,14,10.30
2010,03,16,13,15,15.00
2010,03,16,13,16,13.40
2010,03,16,13,17,14.50
2010,03,16,13,18,10.10
2010,03,16,13,19,11.00
2010,03,16,13,20,16.20
2010,03,16,13,21,12.40
2010,03,16,13,22,13.90
2010,03,16,13,23,11.70
2010,03,16,13,24,11.30
2010,03,16,13,25,11.30
2010,03,16,13,26,15.20
2010,03,16,13,27,15.40
2010,03,16,13,28,16.70
2010,03,16,13,29,12.00
2010,03,16,13,30,13.70
2010,03,16,13,31,18.80
2010,03,16,13,32,16.80
2010,03,16,13,33,13.70
2010,03,16,13,34,15.80
2010,03,16,13,35,19.90
2010,03,16,13,36,11.50
2010,03,16,13,37,11.20
2010,03,16,13,38,17.10
2010,03,16,13,39,10.10
2010,03,16,13,40,14.40
2010,03,16,13,41,20.20
2010,03,16,13,42,15.50
2010,03,16,13,43,13.40
2010,03,16,13,44,21.70
2010,03,16,13,45,8.80
2010,03,16,13,46,22.40
2010,03,16,13,47,21.90
2010,03,16,13,48,15.70
2010,03,16,13,49,20.00
2010,03,16,13,50,18.80
2010,03,16,13,51,23.20
2010,03,16,13,52,17.30
2010,03,16,13,53,14.80
2010,03,16,13,54,6.90
2010,03,16,13,55,13.80
2010,03,16,13,56,18.50
2010,03,16,13,57,17.20
2010,03,16,13,58,22.70
2010,03,16,13,59,26.30
2010,03,16,14,00,22.70
2010,03,16,14,01,16.60
2010,03,16,14,02,13.00
2010,03,16,14,03,19.60
2010,03,16,14,04,23.10
2010,03,16,14,05,14.70
2010,03,16,14,06,11.50
2010,03,16,14,07,14.90
2010,03,16,14,08,11.90
2010,03,16,14,09,20.00
2010,03,16,14,10,19.50
2010,03,16,14,11,25.00
2010,03,16,14,12,15.80
2010,03,16,14,13,15.60
2010,03,16,14,14,14.70
2010,03,16,14,15,11.30
2010,03,16,14,16,10.50
2010,03,16,14,17,9.80
2010,03,16,14,18,17.30
2010,03,16,14,19,21.80
2010,03,16,14,20,14.70
2010,03,16,14,21,15.80
2010,03,16,14,22,15.00
2010,03,16,14,23,13.20
2010,03,16,14,24,8.50
2010,03,16,14,25,16.00
2010,03,16,14,26,14.30
2010,03,16,14,27,15.30
2010,03,16,14,28,20.20
2010,03,16,14,29,32.90
2010,03,16,14,30,31.50
2010,03,16,14,31,19.80
2010,03,16,14,32,31.00
2010,03,16,14,33,26.20
2010,03,16,14,34,15.10
2010,03,16,14,35,17.00
2010,03,16,14,36,23.10
2010,03,16,14,37,20.80
2010,03,16,14,38,19.40
2010,03,16,14,39,23.90
2010,03,16,14,40,25.60
2010,03,16,14,41,24.70
2010,03,16,14,42,17.20
2010,03,16,14,43,24.00
2010,03,16,14,44,20.70
2010,03,16,14,45,17.00
2010,03,16,14,46,14.80
2010,03,16,14,47,20.20
2010,03,16,14,48,22.30
2010,03,16,14,49,19.50
2010,03,16,14,50,22.40
2010,03,16,14,51,16.90
2010,03,16,14,52,18.60
2010,03,16,14,53,28.60
2010,03,16,14,54,29.10
2010,03,16,14,55,32.00
2010,03,16,14,56,21.60
2010,03,16,14,57,17.10
2010,03,16,14,58,23.30
2010,03,16,14,59,22.90
2010,03,16,15,00,26.90
2010,03,16,15,01,19.50
2010,03,16,15,02,15.60
2010,03,16,15,03,12.60
2010,03,16,15,04,21.50
2010,03,16,15,05,24.80
2010,03,16,15,06,22.40
2010,03,16,15,07,18.60
2010,03,16,15,08,32.30
2010,03,16,15,09,23.50
2010,03,16,15,10,26.30
2010,03,16,15,11,22.60
2010,03,16,15,12,31.90
2010,03,16,15,13,24.30
2010,03,16,15,14,17.60
2010,03,16,15,15,15.30
2010,03,16,15,16,18.10
2010,03,16,15,17,26.50
2010,03,16,15,18,25.40
2010,03,16,15,19,24.10
2010,03,16,15,20,16.50
2010,03,16,15,21,22.40
2010,03,16,15,22,22.00
2010,03,16,15,23,17.60
2010,03,16,15,24,27.20
2010,03,16,15,25,19.30
2010,03,16,15,26,19.90
2010,03,16,15,27,19.90
2010,03,16,15,28,20.80
2010,03,16,15,29,29.50
2010,03,16,15,30,27.00
2010,03,16,15,31,30.60
2010,03,16,15,32,27.00
2010,03,16,15,33,26.30
2010,03,16,15,34,21.30
2010,03,16,15,35,20.00
2010,03,16,15,36,20.90
2010,03,16,15,37,11.30
2010,03,16,15,38,20.60
2010,03,16,15,39,19.80
2010,03,16,15,40,23.60
2010,03,16,15,41,25.50
2010,03,16,15,42,23.30
2010,03,16,15,43,17.00
2010,03,16,15,44,25.20
2010,03,16,15,45,19.50
2010,03,16,15,46,19.00
2010,03,16,15,47,21.20
2010,03,16,15,48,30.80
2010,03,16,15,49,21.30
2010,03,16,15,50,24.30
2010,03,16,15,51,28.50
2010,03,16,15,52,22.40
2010,03,16,15,53,30.70
2010,03,16,15,54,25.50
2010,03,16,15,55,24.30
2010,03,16,15,56,23.80
2010,03,16,15,57,21.50
2010,03,16,15,58,30.10
2010,03,16,15,59,18.60
2010,03,16,16,00,14.70
2010,03,16,16,01,28.00
2010,03,16,16,02,36.70
2010,03,16,16,03,22.50
2010,03,16,16,04,16.90
2010,03,16,16,05,21.80
2010,03,16,16,06,24.50
2010,03,16,16,07,27.40
2010,03,16,16,08,25.90
2010,03,16,16,09,30.90
2010,03,16,16,10,29.10
2010,03,16,16,11,18.00
2010,03,16,16,12,25.60
2010,03,16,16,13,29.10
2010,03,16,16,14,27.90
2010,03,16,16,15,26.10
2010,03,16,16,16,19.20
2010,03,16,16,17,26.40
2010,03,16,16,18,16.40
2010,03,16,16,19,20.80
2010,03,16,16,20,16.70
2010,03,16,16,21,26.40
2010,03,16,16,22,27.50
2010,03,16,16,23,24.40
2010,03,16,16,24,22.40
2010,03,16,16,25,26.00
2010,03,16,16,26,19.20
2010,03,16,16,27,29.00
2010,03,16,16,28,18.50
2010,03,16,16,29,26.30
2010,03,16,16,30,23.00
2010,03,16,16,31,18.00
2010,03,16,16,32,20.60
2010,03,16,16,33,31.10
2010,03,16,16,34,27.60
2010,03,16,16,35,31.70
2010,03,16,16,36,31.10
2010,03,16,16,37,28.10
2010,03,16,16,38,34.60
2010,03,16,16,39,23.40
2010,03,16,16,40,29.00
2010,03,16,16,41,24.80
2010,03,16,16,42,27.20
2010,03,16,16,43,28.20
2010,03,16,16,44,22.30
2010,03,16,16,45,18.80
2010,03,16,16,46,24.40
2010,03,16,16,47,13.30
2010,03,16,16,48,17.30
2010,03,16,16,49,22.90
2010,03,16,16,50,24.70
2010,03,16,16,51,27.40
2010,03,16,16,52,22.30
2010,03,16,16,53,15.80
2010,03,16,16,54,28.10
2010,03,16,16,55,19.20
2010,03,16,16,56,17.90
2010,03,16,16,57,18.00
2010,03,16,16,58,12.30
2010,03,16,16,59,18.80
2010,03,16,17,00,10.00
2010,03,16,17,01,8.20
2010,03,16,17,02,10.80
2010,03,16,17,03,17.70
2010,03,16,17,04,23.40
2010,03,16,17,05,24.20
2010,03,16,17,06,8.70
2010,03,16,17,07,19.10
2010,03,16,17,08,11.90
2010,03,16,17,09,11.30
2010,03,16,17,10,9.70
2010,03,16,17,11,18.20
2010,03,16,17,12,8.10
2010,03,16,17,13,12.20
2010,03,16,17,14,13.20
2010,03,16,17,15,8.10
2010,03,16,17,16,19.40
2010,03,16,17,17,20.80
2010,03,16,17,18,20.60
2010,03,16,17,19,12.70
2010,03,16,17,20,4.80
2010,03,16,17,21,8.70
2010,03,16,17,22,11.80
2010,03,16,17,23,19.90
2010,03,16,17,24,18.50
2010,03,16,17,25,17.80
2010,03,16,17,26,10.00
2010,03,16,17,27,14.00
2010,03,16,17,28,12.60
2010,03,16,17,29,7.60
2010,03,16,17,30,13.80
2010,03,16,17,31,14.60
2010,03,16,17,32,12.50
2010,03,16,17,33,11.30
2010,03,16,17,34,13.20
2010,03,16,17,35,5.40
2010,03,16,17,36,15.20
2010,03,16,17,37,14.80
2010,03,16,17,38,6.20
2010,03,16,17,39,12.70
2010,03,16,17,40,13.00
2010,03,16,17,41,16.80
2010,03,16,17,42,12.20
2010,03,16,17,43,11.40
2010,03,16,17,44,7.20
2010,03,16,17,45,8.00
2010,03,16,17,46,16.00
2010,03,16,17,47,12.20
2010,03,16,17,48,7.40
2010,03,16,17,49,8.10
2010,03,16,17,50,15.50